User: anonymous   Login
Location: Unspecified
(0.0000°N, 0.0000°E)
Time: 02:11:29
(UTC+00:00)
Language:

FLOCK 4H 35 - Orbit

View from above orbital plane
View from above orbital plane
View from above satellite
View from above satellite

Ground track
Ground track

The orbit is defined by the following mean orbital elements,

1 66738U          26145.45935997 +.00000000 +00000-0 +22150-3 0 00005
2 66738  97.4203 219.5922 0002465  50.7689 309.3764 15.20369137    08
Epoch (UTC): 25 May 2026 11:01:28
Eccentricity: 0.0002465
inclination: 97.4203°
perigee height: 503 km
apogee height: 506 km
right ascension of ascending node: 219.5922°
argument of perigee: 50.7689°
revolutions per day: 15.20369137
mean anomaly at epoch: 309.3764°

The dashed part of the orbit path shows where the satellite is in the earth's shadow,  

DLR